Time,TemperatureF,DewpointF,PressureIn,WindDirection,WindDirectionDegrees,WindSpeedMPH,WindSpeedGustMPH,Humidity,HourlyPrecipIn,Conditions,Clouds,dailyrainin,SoftwareType,DateUTC
2013-05-11 00:02:00,41.0,21.0,-100.00,North,-999,-999.0,-999.0,45,-99.99,,,-99.99,,2013-05-11 06:02:00,
2013-05-11 00:12:00,42.0,22.0,-100.00,ESE,110,14.0,-999.0,46,-99.99,,,-99.99,,2013-05-11 06:12:00,
2013-05-11 00:21:00,41.0,23.0,-100.00,North,-999,-999.0,-999.0,47,-99.99,,,-99.99,,2013-05-11 06:21:00,
2013-05-11 00:31:00,41.0,23.0,-100.00,North,-999,-999.0,-999.0,47,-99.99,,,-99.99,,2013-05-11 06:31:00,
2013-05-11 00:42:00,43.0,25.0,-100.00,North,-999,-999.0,-999.0,49,-99.99,,,-99.99,,2013-05-11 06:42:00,
2013-05-11 00:52:00,42.0,25.0,-100.00,East,95,12.0,-999.0,51,-99.99,,,-99.99,,2013-05-11 06:52:00,
2013-05-11 01:01:00,42.0,26.0,-100.00,East,95,13.0,15.0,52,-99.99,,,-99.99,,2013-05-11 07:01:00,
2013-05-11 01:11:00,41.0,26.0,-100.00,East,95,12.0,13.0,54,-99.99,,,-99.99,,2013-05-11 07:11:00,
2013-05-11 01:21:00,41.0,26.0,-100.00,East,95,12.0,12.0,55,-99.99,,,-99.99,,2013-05-11 07:21:00,
2013-05-11 01:31:00,40.0,26.0,-100.00,North,-999,-999.0,-999.0,56,-99.99,,,-99.99,,2013-05-11 07:31:00,
2013-05-11 01:41:00,40.0,27.0,-100.00,North,-999,-999.0,-999.0,57,-99.99,,,-99.99,,2013-05-11 07:41:00,
2013-05-11 02:01:00,39.0,26.0,-100.00,ESE,110,10.0,-999.0,59,-99.99,,,-99.99,,2013-05-11 08:01:00,
2013-05-11 02:11:00,39.0,27.0,-100.00,North,-999,-999.0,-999.0,59,-99.99,,,-99.99,,2013-05-11 08:11:00,
2013-05-11 02:21:00,39.0,27.0,-100.00,ESE,110,11.0,-999.0,61,-99.99,,,-99.99,,2013-05-11 08:21:00,
2013-05-11 02:31:00,38.0,27.0,-100.00,East,100,11.0,12.0,63,-99.99,,,-99.99,,2013-05-11 08:31:00,
2013-05-11 02:42:00,38.0,27.0,-100.00,ESE,105,11.0,12.0,63,-99.99,,,-99.99,,2013-05-11 08:42:00,
2013-05-11 02:51:00,38.0,28.0,-100.00,North,-999,-999.0,-999.0,66,-99.99,,,-99.99,,2013-05-11 08:51:00,
2013-05-11 03:01:00,39.0,29.0,-100.00,North,-999,-999.0,-999.0,67,-99.99,,,-99.99,,2013-05-11 09:01:00,
2013-05-11 03:11:00,38.0,29.0,-100.00,East,100,9.0,12.0,68,-99.99,,,-99.99,,2013-05-11 09:11:00,
2013-05-11 03:21:00,37.0,28.0,-100.00,North,-999,-999.0,-999.0,68,-99.99,,,-99.99,,2013-05-11 09:21:00,
2013-05-11 03:32:00,37.0,28.0,-100.00,SE,135,11.0,-999.0,68,-99.99,,,-99.99,,2013-05-11 09:32:00,
2013-05-11 03:42:00,38.0,28.0,-100.00,SE,135,10.0,-999.0,68,-99.99,,,-99.99,,2013-05-11 09:42:00,
2013-05-11 03:52:00,36.0,27.0,-100.00,SE,125,9.0,10.0,70,-99.99,,,-99.99,,2013-05-11 09:52:00,
2013-05-11 04:03:00,36.0,28.0,-100.00,ESE,120,9.0,10.0,72,-99.99,,,-99.99,,2013-05-11 10:03:00,
2013-05-11 04:12:00,37.0,29.0,-100.00,SE,125,9.0,-999.0,72,-99.99,,,-99.99,,2013-05-11 10:12:00,
2013-05-11 04:22:00,37.0,29.0,-100.00,SSE,150,9.0,10.0,71,-99.99,,,-99.99,,2013-05-11 10:22:00,
2013-05-11 04:32:00,37.0,29.0,-100.00,SSE,150,9.0,10.0,71,-99.99,,,-99.99,,2013-05-11 10:32:00,
2013-05-11 04:41:00,37.0,29.0,-100.00,SSE,150,9.0,10.0,71,-99.99,,,-99.99,,2013-05-11 10:41:00,
2013-05-11 04:52:00,37.0,30.0,-100.00,North,-999,-999.0,-999.0,73,-99.99,,,-99.99,,2013-05-11 10:52:00,
2013-05-11 05:02:00,37.0,29.0,-100.00,SE,140,7.0,-999.0,73,-99.99,,,-99.99,,2013-05-11 11:02:00,
2013-05-11 05:11:00,37.0,30.0,-100.00,SE,140,8.0,-999.0,73,-99.99,,,-99.99,,2013-05-11 11:11:00,
2013-05-11 05:21:00,37.0,29.0,-100.00,SE,135,9.0,9.0,73,-99.99,,,-99.99,,2013-05-11 11:21:00,
2013-05-11 05:31:00,37.0,30.0,-100.00,SE,140,9.0,9.0,73,-99.99,,,-99.99,,2013-05-11 11:31:00,
2013-05-11 05:42:00,36.0,29.0,-100.00,ESE,120,9.0,9.0,74,-99.99,,,-99.99,,2013-05-11 11:42:00,
2013-05-11 05:51:00,36.0,29.0,-100.00,SE,135,10.0,11.0,75,-99.99,,,-99.99,,2013-05-11 11:51:00,
2013-05-11 06:01:00,35.0,28.0,-100.00,North,-999,-999.0,-999.0,76,-99.99,,,-99.99,,2013-05-11 12:01:00,
2013-05-11 06:11:00,35.0,28.0,-100.00,ESE,110,10.0,-999.0,78,-99.99,,,-99.99,,2013-05-11 12:11:00,
2013-05-11 06:21:00,34.0,29.0,-100.00,SE,125,9.0,11.0,79,-99.99,,,-99.99,,2013-05-11 12:21:00,
2013-05-11 06:32:00,34.0,29.0,-100.00,SE,125,9.0,10.0,78,-99.99,,,-99.99,,2013-05-11 12:32:00,
2013-05-11 06:41:00,34.0,28.0,-100.00,North,-999,-999.0,-999.0,79,-99.99,,,-99.99,,2013-05-11 12:41:00,
2013-05-11 06:51:00,34.0,28.0,-100.00,ESE,115,9.0,-999.0,79,-99.99,,,-99.99,,2013-05-11 12:51:00,
2013-05-11 07:01:00,36.0,30.0,-100.00,SE,130,9.0,11.0,76,-99.99,,,-99.99,,2013-05-11 13:01:00,
2013-05-11 07:11:00,38.0,30.0,-100.00,North,-999,-999.0,-999.0,73,-99.99,,,-99.99,,2013-05-11 13:11:00,
2013-05-11 07:21:00,40.0,31.0,-100.00,North,-999,-999.0,-999.0,68,-99.99,,,-99.99,,2013-05-11 13:21:00,
2013-05-11 07:31:00,42.0,31.0,-100.00,North,-999,-999.0,-999.0,64,-99.99,,,-99.99,,2013-05-11 13:31:00,
2013-05-11 07:41:00,44.0,31.0,-100.00,North,-999,-999.0,-999.0,60,-99.99,,,-99.99,,2013-05-11 13:41:00,
2013-05-11 07:52:00,45.0,30.0,-100.00,SE,130,3.0,3.0,55,-99.99,,,-99.99,,2013-05-11 13:52:00,
2013-05-11 08:01:00,46.0,31.0,-100.00,ESE,120,4.0,4.0,54,-99.99,,,-99.99,,2013-05-11 14:01:00,
2013-05-11 08:11:00,48.0,31.0,-100.00,SE,125,4.0,-999.0,52,-99.99,,,-99.99,,2013-05-11 14:11:00,
2013-05-11 08:21:00,49.0,31.0,-100.00,South,170,2.0,-999.0,49,-99.99,,,-99.99,,2013-05-11 14:21:00,
2013-05-11 08:32:00,50.0,31.0,-100.00,SE,125,2.0,-999.0,46,-99.99,,,-99.99,,2013-05-11 14:32:00,
2013-05-11 08:41:00,50.0,31.0,-100.00,SE,125,2.0,-999.0,46,-99.99,,,-99.99,,2013-05-11 14:41:00,
2013-05-11 08:51:00,50.0,31.0,-100.00,SE,125,2.0,-999.0,46,-99.99,,,-99.99,,2013-05-11 14:51:00,
2013-05-11 09:01:00,50.0,31.0,-100.00,SE,125,2.0,-999.0,46,-99.99,,,-99.99,,2013-05-11 15:01:00,
2013-05-11 09:11:00,50.0,31.0,-100.00,SE,125,2.0,-999.0,46,-99.99,,,-99.99,,2013-05-11 15:11:00,
2013-05-11 09:32:00,52.0,29.0,-100.00,North,-999,-999.0,-999.0,41,-99.99,,,-99.99,,2013-05-11 15:32:00,
2013-05-11 09:43:00,53.0,30.0,-100.00,NNW,330,5.0,-999.0,40,-99.99,,,-99.99,,2013-05-11 15:43:00,
2013-05-11 09:53:00,54.0,30.0,-100.00,West,270,2.0,-999.0,38,-99.99,,,-99.99,,2013-05-11 15:53:00,
2013-05-11 10:02:00,54.0,29.0,-100.00,North,350,3.0,7.0,38,-99.99,,,-99.99,,2013-05-11 16:02:00,
2013-05-11 10:12:00,55.0,29.0,-100.00,North,-999,-999.0,-999.0,36,-99.99,,,-99.99,,2013-05-11 16:12:00,
2013-05-11 10:22:00,54.0,30.0,-100.00,NNW,330,9.0,12.0,38,-99.99,,,-99.99,,2013-05-11 16:22:00,
2013-05-11 10:32:00,54.0,29.0,-100.00,North,355,10.0,13.0,38,-99.99,,,-99.99,,2013-05-11 16:32:00,
2013-05-11 10:42:00,55.0,29.0,-100.00,NNW,340,10.0,14.0,37,-99.99,,,-99.99,,2013-05-11 16:42:00,
2013-05-11 10:52:00,55.0,29.0,-100.00,NNW,345,7.0,13.0,37,-99.99,,,-99.99,,2013-05-11 16:52:00,
2013-05-11 11:02:00,55.0,30.0,-100.00,North,10,10.0,12.0,37,-99.99,,,-99.99,,2013-05-11 17:02:00,
2013-05-11 11:11:00,58.0,30.0,-100.00,NW,320,8.0,16.0,34,-99.99,,,-99.99,,2013-05-11 17:11:00,
2013-05-11 11:22:00,59.0,30.0,-100.00,North,350,9.0,12.0,32,-99.99,,,-99.99,,2013-05-11 17:22:00,
2013-05-11 11:31:00,58.0,29.0,-100.00,NNW,335,6.0,12.0,33,-99.99,,,-99.99,,2013-05-11 17:31:00,
2013-05-11 11:41:00,59.0,29.0,-100.00,NW,320,6.0,12.0,32,-99.99,,,-99.99,,2013-05-11 17:41:00,
2013-05-11 11:51:00,61.0,29.0,-100.00,NW,325,9.0,12.0,29,-99.99,,,-99.99,,2013-05-11 17:51:00,
2013-05-11 12:01:00,62.0,30.0,-100.00,NW,305,9.0,13.0,29,-99.99,,,-99.99,,2013-05-11 18:01:00,
2013-05-11 12:11:00,59.0,29.0,-100.00,NNE,15,11.0,14.0,31,-99.99,,,-99.99,,2013-05-11 18:11:00,
2013-05-11 12:21:00,61.0,29.0,-100.00,NNW,345,6.0,13.0,29,-99.99,,,-99.99,,2013-05-11 18:21:00,
2013-05-11 12:31:00,61.0,27.0,-100.00,North,0,11.0,16.0,27,-99.99,,,-99.99,,2013-05-11 18:31:00,
2013-05-11 12:32:00,61.0,29.0,-100.00,North,0,8.0,14.0,30,-99.99,,,-99.99,,2013-05-11 18:32:00,
2013-05-11 12:41:00,61.0,28.0,-100.00,NNW,330,11.0,16.0,28,-99.99,,,-99.99,,2013-05-11 18:41:00,
2013-05-11 12:51:00,61.0,27.0,-100.00,North,0,11.0,16.0,27,-99.99,,,-99.99,,2013-05-11 18:51:00,
2013-05-11 13:02:00,61.0,27.0,-100.00,North,0,11.0,16.0,27,-99.99,,,-99.99,,2013-05-11 19:02:00,
2013-05-11 13:11:00,61.0,27.0,-100.00,North,0,11.0,16.0,27,-99.99,,,-99.99,,2013-05-11 19:11:00,
2013-05-11 13:21:00,61.0,27.0,-100.00,North,0,11.0,16.0,27,-99.99,,,-99.99,,2013-05-11 19:21:00,
2013-05-11 16:22:00,69.0,23.0,-100.00,WNW,300,12.0,-999.0,17,-99.99,,,-99.99,,2013-05-11 22:22:00,
2013-05-11 16:33:00,70.0,23.0,-100.00,NW,315,8.0,16.0,17,-99.99,,,-99.99,,2013-05-11 22:33:00,
2013-05-11 16:42:00,68.0,22.0,-100.00,North,0,4.0,12.0,17,-99.99,,,-99.99,,2013-05-11 22:42:00,
2013-05-11 16:52:00,69.0,22.0,-100.00,NNW,330,6.0,12.0,16,-99.99,,,-99.99,,2013-05-11 22:52:00,
2013-05-11 17:02:00,69.0,22.0,-100.00,North,0,1.0,9.0,16,-99.99,,,-99.99,,2013-05-11 23:02:00,
2013-05-11 17:11:00,69.0,23.0,-100.00,NW,320,11.0,14.0,17,-99.99,,,-99.99,,2013-05-11 23:11:00,
2013-05-11 17:21:00,66.0,21.0,-100.00,North,0,7.0,12.0,18,-99.99,,,-99.99,,2013-05-11 23:21:00,
2013-05-11 17:31:00,64.0,20.0,-100.00,North,355,4.0,9.0,18,-99.99,,,-99.99,,2013-05-11 23:31:00,
2013-05-11 17:42:00,65.0,21.0,-100.00,NNW,345,4.0,9.0,18,-99.99,,,-99.99,,2013-05-11 23:42:00,
2013-05-11 17:52:00,68.0,22.0,-100.00,NW,320,7.0,12.0,17,-99.99,,,-99.99,,2013-05-11 23:52:00,
2013-05-11 18:01:00,67.0,21.0,-100.00,NW,305,5.0,9.0,16,-99.99,,,-99.99,,2013-05-12 00:01:00,
2013-05-11 18:11:00,67.0,21.0,-100.00,NW,305,4.0,12.0,17,-99.99,,,-99.99,,2013-05-12 00:11:00,
2013-05-11 18:21:00,66.0,20.0,-100.00,NNW,340,3.0,9.0,17,-99.99,,,-99.99,,2013-05-12 00:21:00,
2013-05-11 18:32:00,66.0,20.0,-100.00,NW,315,4.0,10.0,17,-99.99,,,-99.99,,2013-05-12 00:32:00,
2013-05-11 18:41:00,65.0,20.0,-100.00,West,275,4.0,7.0,18,-99.99,,,-99.99,,2013-05-12 00:41:00,
2013-05-11 18:51:00,65.0,21.0,-100.00,NW,315,7.0,9.0,18,-99.99,,,-99.99,,2013-05-12 00:51:00,
2013-05-11 19:01:00,64.0,20.0,-100.00,NW,325,11.0,15.0,18,-99.99,,,-99.99,,2013-05-12 01:01:00,
2013-05-11 19:11:00,63.0,20.0,-100.00,NW,325,10.0,14.0,18,-99.99,,,-99.99,,2013-05-12 01:11:00,
2013-05-11 19:21:00,63.0,20.0,-100.00,NW,320,9.0,13.0,18,-99.99,,,-99.99,,2013-05-12 01:21:00,
2013-05-11 19:31:00,63.0,20.0,-100.00,NW,320,7.0,10.0,18,-99.99,,,-99.99,,2013-05-12 01:31:00,
2013-05-11 19:41:00,64.0,21.0,-100.00,NW,320,8.0,10.0,19,-99.99,,,-99.99,,2013-05-12 01:41:00,
2013-05-11 19:52:00,64.0,22.0,-100.00,NW,305,7.0,11.0,19,-99.99,,,-99.99,,2013-05-12 01:52:00,
2013-05-11 20:01:00,64.0,21.0,-100.00,WNW,295,7.0,12.0,19,-99.99,,,-99.99,,2013-05-12 02:01:00,
2013-05-11 20:11:00,63.0,22.0,-100.00,West,275,8.0,12.0,19,-99.99,,,-99.99,,2013-05-12 02:11:00,
2013-05-11 20:21:00,62.0,21.0,-100.00,West,260,7.0,9.0,20,-99.99,,,-99.99,,2013-05-12 02:21:00,
2013-05-11 20:31:00,61.0,21.0,-100.00,West,260,7.0,-999.0,20,-99.99,,,-99.99,,2013-05-12 02:31:00,
2013-05-11 20:41:00,61.0,21.0,-100.00,WSW,250,9.0,10.0,21,-99.99,,,-99.99,,2013-05-12 02:41:00,
2013-05-11 20:52:00,60.0,21.0,-100.00,WSW,250,11.0,12.0,21,-99.99,,,-99.99,,2013-05-12 02:52:00,
2013-05-11 21:01:00,60.0,20.0,-100.00,WSW,250,11.0,-999.0,21,-99.99,,,-99.99,,2013-05-12 03:01:00,
2013-05-11 21:11:00,59.0,21.0,-100.00,West,260,9.0,12.0,22,-99.99,,,-99.99,,2013-05-12 03:11:00,
2013-05-11 21:21:00,59.0,21.0,-100.00,West,260,7.0,10.0,22,-99.99,,,-99.99,,2013-05-12 03:21:00,
2013-05-11 21:32:00,59.0,21.0,-100.00,West,260,7.0,10.0,22,-99.99,,,-99.99,,2013-05-12 03:32:00,
2013-05-11 21:42:00,59.0,21.0,-100.00,West,260,7.0,10.0,22,-99.99,,,-99.99,,2013-05-12 03:42:00,
2013-05-11 21:53:00,58.0,21.0,-100.00,West,265,7.0,-999.0,23,-99.99,,,-99.99,,2013-05-12 03:53:00,
2013-05-11 22:02:00,-999.0,-99.9,-100.00,West,265,6.0,9.0,23,-99.99,,,-99.99,,2013-05-12 04:02:00,
2013-05-11 22:12:00,57.0,20.0,-100.00,West,280,4.0,8.0,23,-99.99,,,-99.99,,2013-05-12 04:12:00,
2013-05-11 22:22:00,56.0,19.0,-100.00,West,270,4.0,8.0,23,-99.99,,,-99.99,,2013-05-12 04:22:00,
2013-05-11 22:32:00,56.0,19.0,-100.00,West,270,5.0,7.0,23,-99.99,,,-99.99,,2013-05-12 04:32:00,
2013-05-11 22:42:00,56.0,19.0,-100.00,NNW,335,6.0,8.0,23,-99.99,,,-99.99,,2013-05-12 04:42:00,
2013-05-11 22:52:00,56.0,19.0,-100.00,WNW,295,4.0,10.0,23,-99.99,,,-99.99,,2013-05-12 04:52:00,
2013-05-11 23:02:00,55.0,19.0,-100.00,West,275,6.0,7.0,23,-99.99,,,-99.99,,2013-05-12 05:02:00,
2013-05-11 23:11:00,55.0,19.0,-100.00,West,275,6.0,7.0,23,-99.99,,,-99.99,,2013-05-12 05:11:00,
2013-05-11 23:21:00,55.0,19.0,-100.00,West,275,6.0,7.0,23,-99.99,,,-99.99,,2013-05-12 05:21:00,
2013-05-11 23:31:00,55.0,19.0,-100.00,West,275,6.0,7.0,23,-99.99,,,-99.99,,2013-05-12 05:31:00,
2013-05-11 23:42:00,55.0,19.0,-100.00,West,275,6.0,7.0,23,-99.99,,,-99.99,,2013-05-12 05:42:00,